Location: Sihaung
(22.8641°N, 94.0549°E)
Time: 16:38:13
(UTC+00:00)

Landsat 5 - Pass Details

Date: 03 March 2021
Orbit: 529 x 652 km, 98.2° (Epoch: 12 April)

Event Time Altitude Azimuth Distance (km) Brightness Sun altitude
Rises 22:52:55 0° 188° (S) 2,675 6.7 -16.9°
Reaches altitude 10° 22:55:14 10° 200° (SSW) 1,777 5.7 -16.4°
Enters shadow 22:58:07 28° 248° (WSW) 1,020 4.1 -15.7°
